Weather in Alekseyevo

Russia / Ryazan Oblast     55°07′06″N   40°53′52″E
temp.,
°C
wind,
m/s
gust,
m/s
humid.,
%
clouds,
%
prec.,
mm/h
press.,
hPa
HPBL,
m
25 february, thu
thu2500:00−17s4995100 0.4 1031427
03:00−15ssw41095100 0.8 1028435
06:00−14s4995100 1.6 1024427
09:00−11ssw51195100 3.5 1019429
12:00−7ssw51095100 3.0 1015365
15:00+1w311100100 4.0 1012400
18:00+2wnw411100100 0.3 1012405
21:00+1wnw3999100 0.3 1013334
26 february, fri
fri2600:00+1w3798100 0.0 1013260
03:00+1wsw2598100 0.1 1013193
06:00+1wsw3899100 0.4 1010274
09:00+2wsw41099100 0.9 1009290
12:00+2wsw411100100 0.3 1007418
15:00+3wsw515100100 1.1 1004491
18:00+2w51599100 1.5 1002706
21:00+2w5149492 1.6 1002858
27 february, sat
sat2700:00+1w61491100 0.1 10011000
03:00+1wnw6129099 0.1 10011012
06:00+1w61389100 0.0 999839
09:000w6129190 0.0 1000974
12:00+1w61293100 0.1 1000919
15:00−4nnw61091100 0.9 1002733
18:00−7nnw41089100 0.1 1004687
21:00−8n4890100 0.1 1008633
28 february, sun
sun2800:00−10nnw399499 0.0 1009378
03:00−11nnw389594 0.1 1012346
06:00−12nnw389574 0.0 1013275
09:00−11nnw379146 0.0 1015369
12:00−8nnw378986 0.0 1016542
15:00−6nnw478893 0.1 1017677
18:00−7nnw3992100 0.1 1018722
21:00−9nnw3894100 0.1 1021257
1 march, mon
mon100:00−11nnw239792 0.0 102360
03:00−11nnw239684 0.1 102485
06:00−12nw229778 0.0 102522
09:00−9nnw249573 0.1 1027202
12:00−4nw258977 0.0 1027502
15:00−2w358787 0.1 1026644
18:00−3wsw3890100 0.0 1025384
21:00−5wsw4109499 0.0 1023354